星链-1463 (STARLINK-1463 )

导读 | 豆包AI

STARLINK-1463是美国太空探索技术公司Starlink星链计划的卫星之一,于2020年6月13日发射升空。它属于星链星座组网卫星,主要为全球范围内用户提供高速互联网接入服务,是星链低轨互联网星座部署过程中的一环,进一步推动了星链星座的全球覆盖能力建设。

基本信息
目录编号:
45771
目录名称:
STARLINK-1463
国际标识:
2020-038AT
轨道中心:
EARTH
卫星名称:
星链-1463
卫星全名:
星链-1463 (STARLINK-1463 )
卫星状态:
已陨落 最后检测时间 2025-03-22
发射日期:
2020-06-13 UTC
国别 :
美国 (US)
星等 :
--
轨道信息
数据来源 国际轨道数据
星历时间: 2025-03-22T08:42:51+0800
轨道信息已过期378天
半长轴: 6519.628km
偏心率: 0.0008084
轨道倾角: 53.019°
近地点辐角 285.318°
升交点赤经 282.807°
平近点角 203.016°
近地点: 136.222km
远地点: 146.764km
周期: 87.316分钟
每日圈数: 16.49182
详细信息
固有亮度:
5
最大亮度:
2.5
卫星平台:
Starlink V1.0
覆盖范围:
全球
运营商:
太空探索技术公司
运营商所在国:
美国
制造商(研发单位):
太空探索技术公司
制造商所在国:
美国
使用方式:
暂无
卫星简介
星链(Starlink)计划是由太空探索技术公司(SpaceX)提出的一个巨型低轨卫星互联网星座项目,计划在2019年至2024年间在太空搭建由约1.2万颗卫星组成的“星链”网络,其中1584颗将部署在地球上空550千米处的近地轨道,并从2020年开始工作。该卫星仍在工作。